Location: Chequamegon National Forest
(46.1070°N, 90.8420°W)
Time: 09:18:03
(UTC-06:00)

ISS - All Passes

Search period start: 24 January 2017 00:00
Search period end: 03 February 2017 00:00
Orbit: 399 x 409 km, 51.6° (Epoch: 25 January)

Date Brightness Start Highest point End Pass type
(mag) Time Alt. Az. Time Alt. Az. Time Alt. Az.
24 Jan - 00:31:52 10° WNW 00:34:48 30° N 00:37:44 10° ENE night (unlit)
24 Jan - 02:08:24 10° WNW 02:11:39 68° NNE 02:14:53 10° ESE night (unlit)
24 Jan - 03:45:21 10° W 03:47:53 21° SW 03:50:23 10° S night (unlit)
24 Jan - 20:26:15 10° SSW 20:29:08 29° SE 20:32:01 10° E night (unlit)
24 Jan - 22:02:17 10° W 22:05:29 54° NNW 22:08:41 10° ENE night (unlit)
24 Jan - 23:39:29 10° WNW 23:42:24 29° N 23:45:18 10° ENE night (unlit)
25 Jan - 01:16:10 10° WNW 01:19:21 47° NNE 01:22:30 10° E night (unlit)
25 Jan - 02:52:45 10° WNW 02:55:47 36° SW 02:58:47 10° SSE night (unlit)
25 Jan - 19:34:51 10° S 19:37:03 17° SE 19:39:16 10° E visible
25 Jan - 21:09:55 10° WSW 21:13:11 81° NNW 21:16:27 10° ENE night (unlit)
25 Jan - 22:47:00 10° WNW 22:49:59 31° N 22:52:56 10° ENE night (unlit)
26 Jan - 00:23:55 10° WNW 00:26:58 36° NNE 00:30:01 10° E night (unlit)
26 Jan - 02:00:23 10° WNW 02:03:36 62° SSW 02:06:49 10° SE night (unlit)
26 Jan - 20:17:43 10° SW 20:20:56 61° SSE 20:24:10 10° ENE visible
26 Jan - 21:54:30 10° W 21:57:33 36° NNW 22:00:37 10° ENE night (unlit)
26 Jan - 23:31:36 10° WNW 23:34:33 31° N 23:37:31 10° ENE night (unlit)
27 Jan - 01:08:06 10° WNW 01:11:21 80° NNE 01:14:36 10° ESE night (unlit)
27 Jan - 02:45:15 10° W 02:47:29 17° SW 02:49:42 10° S night (unlit)
27 Jan - 19:25:43 10° SSW 19:28:44 35° SE 19:31:45 10° ENE visible
27 Jan - 21:02:00 10° W 21:05:10 47° NNW 21:08:21 10° ENE night (unlit)
27 Jan - 22:39:11 10° WNW 22:42:07 29° N 22:45:01 10° ENE night (unlit)
28 Jan - 00:15:49 10° WNW 00:19:01 53° NNE 00:22:13 10° E night (unlit)
28 Jan - 01:52:29 10° WNW 01:55:22 29° SW 01:58:15 10° SSE night (unlit)
28 Jan - 18:34:05 10° S 18:36:36 21° SE 18:39:07 10° E visible
28 Jan - 20:09:33 10° WSW 20:12:48 70° NNW 20:16:04 10° ENE visible
28 Jan - 21:46:42 10° WNW 21:49:39 30° N 21:52:35 10° ENE night (unlit)
28 Jan - 23:23:32 10° WNW 23:26:38 39° NNE 23:29:43 10° E night (unlit)
29 Jan - 01:00:01 10° WNW 01:03:12 51° SSW 01:06:21 10° SE night (unlit)
29 Jan - 17:43:14 10° SSE 17:44:32 12° SE 17:45:49 10° ESE visible
29 Jan - 19:17:14 10° SW 19:20:30 74° SSE 19:23:45 10° ENE visible
29 Jan - 20:54:09 10° W 20:57:11 34° NNW 21:00:12 10° ENE night (unlit)
29 Jan - 22:31:11 10° WNW 22:34:11 32° N 22:37:10 10° ENE night (unlit)
30 Jan - 00:07:40 10° WNW 00:10:56 87° SSW 00:14:10 10° ESE night (unlit)
30 Jan - 01:45:08 10° W 01:46:58 14° SW 01:48:47 10° SSW night (unlit)
30 Jan - 18:25:07 10° SW 18:28:15 42° SE 18:31:22 10° ENE visible
30 Jan - 20:01:36 10° W 20:04:44 43° NNW 20:07:53 10° ENE visible
30 Jan - 21:38:46 10° WNW 21:41:42 29° N 21:44:37 10° ENE night (unlit)
30 Jan - 23:15:21 10° WNW 23:18:35 60° NNE 23:21:48 10° ESE night (unlit)
31 Jan - 00:52:08 10° W 00:54:51 24° SW 00:57:33 10° SSE night (unlit)
31 Jan - 17:33:18 10° SSW 17:36:02 25° SE 17:38:47 10° E visible
31 Jan - 19:09:05 10° WSW 19:12:19 60° NNW 19:15:34 10° ENE visible
31 Jan - 20:46:16 10° WNW 20:49:12 29° N 20:52:08 10° ENE visible
31 Jan - 22:23:01 10° WNW 22:26:10 43° NNE 22:29:18 10° E night (unlit)
31 Jan - 23:59:33 10° WNW 00:02:39 42° SW 00:05:45 10° SE night (unlit)
01 Feb - 16:42:01 10° S 16:43:54 15° SE 16:45:47 10° E daylight
01 Feb - 18:16:41 10° WSW 18:19:57 87° SSE 18:23:14 10° ENE visible
01 Feb - 19:53:41 10° WNW 19:56:42 32° N 19:59:41 10° ENE visible
01 Feb - 21:30:39 10° WNW 21:33:42 34° N 21:36:43 10° E night (unlit)
01 Feb - 23:07:07 10° WNW 23:10:23 74° SSW 23:13:37 10° SE night (unlit)
02 Feb - 00:45:07 10° WSW 00:46:20 12° SW 00:47:34 10° SSW night (unlit)
02 Feb - 17:24:26 10° SW 17:27:38 52° SE 17:30:50 10° ENE daylight
02 Feb - 19:01:05 10° W 19:04:12 39° NNW 19:07:18 10° ENE visible
02 Feb - 20:38:14 10° WNW 20:41:11 30° N 20:44:08 10° ENE visible
02 Feb - 22:14:45 10° WNW 22:18:01 70° NNE 22:21:15 10° ESE night (unlit)
02 Feb - 23:51:43 10° W 23:54:12 20° SW 23:56:42 10° S night (unlit)
